Regional Weather Roundup
Issued by NWS Sterling, VA

Home | Current Version | Previous Version | Graphics & Text | Print | Product List | Glossary On
Versions: 1 2 3 4 5 6 7 8 9 10 11 12 13 14 15 16 17 18 19 20 21 22 23 24 25 26 27 28
000
ASUS41 KLWX 220910
RWRLWX

REGIONAL WEATHER ROUNDUP
NATIONAL WEATHER SERVICE BALTIMORE MD/WASHINGTON DC
500 AM EDT WED MAR 22 2017

Note: "FAIR" indicates few or no clouds below 12,000 feet
with no significant weather and/or obstructions to visibility.
 TC=TEMPERATURE CELSIUS

 * =Non NWS site. Station does not report precipitation (e.g. rain,
    snow, etc.), thunder, or fog.

DCZ001-MDZ009-015-VAZ040>042-051-053>054-221000-
WASHINGTON METRO

CITY           SKY/WX    TMP DP  RH WIND       PRES   REMARKS
WASHINGTON NAT CLOUDY    56  30  37 NW17      29.97R
DULLES         MOCLDY    52  27  38 N20G26    29.98R
ANDREWS AFB    CLOUDY    54  29  39 NW16G24   29.95R
FT BELVOIR     CLOUDY    55  33  43 NW8       29.96R
QUANTICO       CLOUDY    54  38  54 N12       29.97R
COLLEGE PARK*  CLOUDY    52  28  40 NW12G18   29.97R
LEESBURG*      CLOUDY    52  30  43 N18G29    30.01R
MANASSAS*      CLOUDY    54  34  46 NW12G22   29.98R
GAITHERSBURG*  MOCLDY    46  25  42 N6        30.02R

$$

MDZ006>007-011-014-221000-
BALTIMORE METRO

CITY           SKY/WX    TMP DP  RH WIND       PRES   REMARKS
BWI AIRPORT    CLOUDY    51  29  42 NW10      29.96R
MD SCIENCE CTR   N/A     53  26  35 MISG      29.95R
MARTIN STATE   CLOUDY    50  32  50 NW8       29.98R
ANNAPOLIS      CLOUDY    54  33  45 NW13      29.95R
FORT MEADE*    CLOUDY    50  30  46 NW9       29.99R

$$

MDZ012-015-019>023-221000-
MARYLAND EASTERN SHORE

CITY           SKY/WX    TMP DP  RH WIND       PRES   REMARKS
OCEAN CITY     CLOUDY    50  40  68 W5        29.91R
SALISBURY      LGT RAIN  51  42  71 NW6       29.91R
BAY BRIDGE AP* CLOUDY    50  37  62 NW8       29.95R
CAMBRIDGE*     CLOUDY    54  41  62 NW7       29.93R
EASTON*        CLOUDY    53  38  57 N8        29.97R

$$

MDZ017>025-221000-
SOUTHERN MARYLAND

CITY           SKY/WX    TMP DP  RH WIND       PRES   REMARKS
PATUXENT RIVER LGT RAIN  51  46  83 NW8       29.93R
ST INIGOES     LGT RAIN  55  41  59 VRB7      29.92R
LEONARDTOWN*   CLOUDY    50  43  76 CALM      29.95R

$$

MDZ003>005-221000-
NORTH CENTRAL MARYLAND

CITY           SKY/WX    TMP DP  RH WIND       PRES   REMARKS
FREDERICK*     PTCLDY    46  32  57 NW15G22   30.04R
HAGERSTOWN APT CLEAR     40  27  59 NW22G28   30.04R
WESTMINSTER*   PTCLDY    45  28  53 N12G18    29.99R

$$

MDZ501>502-221000-
WESTERN MARYLAND

CITY           SKY/WX    TMP DP  RH WIND       PRES   REMARKS
OAKLAND*       CLOUDY    27  21  80 NW9G24    30.04R WCI  17
CUMBERLAND*    PTCLDY    36  21  55 NW17G28   30.15R WCI  25

$$

VAZ025>031-221000-
SHENANDOAH VALLEY

CITY           SKY/WX    TMP DP  RH WIND       PRES   REMARKS
WINCHESTER*    MOCLDY    43  27  52 NW20G26   30.03R
FRONT ROYAL*   CLOUDY    50  28  43 N12G20    30.00R
LURAY*         PTCLDY    52  34  50 NW16G24   29.98R
NEW MARKET*    MOCLDY    50  31  47 NW3       29.98R
STAUNTON*      CLOUDY    49  35  58 NW9       30.00R
WAYNESBORO*    CLOUDY    48  38  67 W5        29.98R

$$

WVZ021-048>050-054>055-221000-
EASTERN WEST VIRGINIA PANHANDLE

CITY           SKY/WX    TMP DP  RH WIND       PRES   REMARKS
MARTINSBURG    CLEAR     41  25  53 N17G26    30.04R
PETERSBURG*    NOT AVBL

$$

VAZ036>039-050-221000-
CENTRAL FOOTHILLS

CITY           SKY/WX    TMP DP  RH WIND       PRES   REMARKS
CHARLOTTESVILL MOCLDY    55  36  48 NW5       29.96S
CULPEPER*      MOCLDY    54  36  50 NW3       29.98R
ORANGE*        CLOUDY    52  36  54 W6        29.98R
GORDONSVILLE*  CLOUDY    53  38  57 CALM      29.97R
WARRENTON*     CLOUDY    53  31  42 N5        29.96R

$$

VAZ055>057-221000-
NORTH AND CENTRAL PIEDMONT

CITY           SKY/WX    TMP DP  RH WIND       PRES   REMARKS
FREDERICKSBRG* CLOUDY    52  43  72 NW6       29.95R
STAFFORD*      CLOUDY    53  35  51 NW12      30.00R

$$

NCZ024-NYZ072-PAZ021-071-VAZ022-071-221000-
OTHER REGIONAL OBSERVATIONS

CITY           SKY/WX    TMP DP  RH WIND       PRES   REMARKS
NEW YORK CITY  CLEAR     43  23  45 NW14G23   29.92R
PHILADELPHIA   CLOUDY    48  22  35 NW15      29.93R
PITTSBURGH     CLOUDY    30  14  51 NW17G29   30.21R WCI  18
ROANOKE        PTCLDY    50  38  63 NW10G20   30.02S
RICHMOND       CLOUDY    53  46  77 NW5       29.94R
RALEIGH        CLOUDY    56  46  69 NE3       29.93R

$$

ANZ530>537-221000-
MARINE OBSERVATIONS

STATION/POSITION TIME  TEMP    WIND        PRES
                       AIR SEA DIR/SP/G
                 (UTC) (F)     (DEG/KT/KT) (MB)
THOMAS PT LIGHT  0900   54 44  340/ 16/ 17   N/A
BALT KEY BRIDGE  0848   52     330/ 13/ 15 1014.2R
COVE POINT       0848   53     320/  7/ 10 1014.0R
LEWISETTA        0848   52 49  300/  7/  8 1013.3R
SOLOMONS ISLAND  0848   51 45  340/  3/  3   N/A

$$





USA.gov is the U.S. government's official web portal to all federal, state and local government web resources and services.